iso_date,epoch_date,Year,Hour,Min,DOY,POS_DOY,Lat,Lon,BP,Ts,Ta,has_bp,has_ts,has_ta,BuoyID,Buoy_Type,Buoy_Owner,Logistics,Hemisphere
2019-11-18T06:00:00Z,1574056800,2019,6,0,322.25,322.25,62.828,-71.842,998.8,-0.23,-999.0,yes,yes,no,300234065713070,BD2GHI,AOML,CCGS_HENRY_LARSEN,North
2019-11-18T07:00:02Z,1574060403,2019,7,0,322.2917,322.2917,62.841,-71.866,999.3,-0.23,-999.0,yes,yes,no,300234065713070,BD2GHI,AOML,CCGS_HENRY_LARSEN,North
2019-11-18T07:59:57Z,1574063997,2019,8,0,322.3333,322.3333,62.85,-71.88,999.9,-0.24,-999.0,yes,yes,no,300234065713070,BD2GHI,AOML,CCGS_HENRY_LARSEN,North
2019-11-18T09:00:00Z,1574067600,2019,9,0,322.375,322.375,62.855,-71.884,1000.4,-0.23,-999.0,yes,yes,no,300234065713070,BD2GHI,AOML,CCGS_HENRY_LARSEN,North
2019-11-18T10:00:02Z,1574071203,2019,10,0,322.4167,322.4167,62.854,-71.87,1001.1,-0.25,-999.0,yes,yes,no,300234065713070,BD2GHI,AOML,CCGS_HENRY_LARSEN,North
2019-11-18T10:59:57Z,1574074797,2019,11,0,322.4583,322.4583,62.849,-71.85,1001.7,-0.25,-999.0,yes,yes,no,300234065713070,BD2GHI,AOML,CCGS_HENRY_LARSEN,North
2019-11-18T12:00:00Z,1574078400,2019,12,0,322.5,322.5,62.843,-71.822,1002.2,-0.27,-999.0,yes,yes,no,300234065713070,BD2GHI,AOML,CCGS_HENRY_LARSEN,North
2019-11-18T13:01:03Z,1574082063,2019,13,1,322.5424,322.5424,62.837,-71.791,1002.8,-0.28,-999.0,yes,yes,no,300234065713070,BD2GHI,AOML,CCGS_HENRY_LARSEN,North
2019-11-18T14:03:59Z,1574085839,2019,14,4,322.5861,322.5861,62.836,-71.763,1002.8,-0.29,-999.0,yes,yes,no,300234065713070,BD2GHI,AOML,CCGS_HENRY_LARSEN,North
2019-11-18T15:00:00Z,1574089200,2019,15,0,322.625,322.625,62.836,-71.753,1002.8,-0.31,-999.0,yes,yes,no,300234065713070,BD2GHI,AOML,CCGS_HENRY_LARSEN,North
2019-11-18T16:01:03Z,1574092863,2019,16,1,322.6674,322.6674,62.843,-71.758,1003.0,-0.32,-999.0,yes,yes,no,300234065713070,BD2GHI,AOML,CCGS_HENRY_LARSEN,North
2019-11-18T16:59:57Z,1574096397,2019,17,0,322.7083,322.7083,62.854,-71.774,1003.5,-0.32,-999.0,yes,yes,no,300234065713070,BD2GHI,AOML,CCGS_HENRY_LARSEN,North
2019-11-18T18:00:00Z,1574100000,2019,18,0,322.75,322.75,62.865,-71.798,1003.9,-0.33,-999.0,yes,yes,no,300234065713070,BD2GHI,AOML,CCGS_HENRY_LARSEN,North
2019-11-18T19:00:02Z,1574103603,2019,19,0,322.7917,322.7917,62.88,-71.822,1004.8,-0.33,-999.0,yes,yes,no,300234065713070,BD2GHI,AOML,CCGS_HENRY_LARSEN,North
2019-11-18T19:59:57Z,1574107197,2019,20,0,322.8333,322.8333,62.891,-71.84,1005.0,-0.34,-999.0,yes,yes,no,300234065713070,BD2GHI,AOML,CCGS_HENRY_LARSEN,North
2019-11-18T21:00:00Z,1574110800,2019,21,0,322.875,322.875,62.897,-71.849,1006.5,-0.34,-999.0,yes,yes,no,300234065713070,BD2GHI,AOML,CCGS_HENRY_LARSEN,North
2019-11-18T22:00:02Z,1574114403,2019,22,0,322.9167,322.9167,62.897,-71.847,1007.1,-0.35,-999.0,yes,yes,no,300234065713070,BD2GHI,AOML,CCGS_HENRY_LARSEN,North
2019-11-18T22:59:57Z,1574117997,2019,23,0,322.9583,322.9583,62.894,-71.831,1007.7,-0.37,-999.0,yes,yes,no,300234065713070,BD2GHI,AOML,CCGS_HENRY_LARSEN,North
2019-11-19T00:00:00Z,1574121600,2019,0,0,323.0,323.0,62.886,-71.808,1008.2,-0.35,-999.0,yes,yes,no,300234065713070,BD2GHI,AOML,CCGS_HENRY_LARSEN,North
2019-11-19T01:01:03Z,1574125263,2019,1,1,323.0424,323.0424,62.877,-71.781,1008.7,-0.36,-999.0,yes,yes,no,300234065713070,BD2GHI,AOML,CCGS_HENRY_LARSEN,North
2019-11-19T01:59:57Z,1574128797,2019,2,0,323.0833,323.0833,62.869,-71.755,1009.0,-0.36,-999.0,yes,yes,no,300234065713070,BD2GHI,AOML,CCGS_HENRY_LARSEN,North
2019-11-19T03:00:00Z,1574132400,2019,3,0,323.125,323.125,62.864,-71.741,1009.1,-0.36,-999.0,yes,yes,no,300234065713070,BD2GHI,AOML,CCGS_HENRY_LARSEN,North
2019-11-19T04:01:03Z,1574136063,2019,4,1,323.1674,323.1674,62.861,-71.736,1009.7,-0.36,-999.0,yes,yes,no,300234065713070,BD2GHI,AOML,CCGS_HENRY_LARSEN,North
2019-11-19T04:59:57Z,1574139597,2019,5,0,323.2083,323.2083,62.869,-71.752,1010.3,-0.37,-999.0,yes,yes,no,300234065713070,BD2GHI,AOML,CCGS_HENRY_LARSEN,North
2019-11-19T06:00:00Z,1574143200,2019,6,0,323.25,323.25,62.879,-71.776,1011.0,-0.46,-999.0,yes,yes,no,300234065713070,BD2GHI,AOML,CCGS_HENRY_LARSEN,North
2019-11-19T07:01:03Z,1574146863,2019,7,1,323.2924,323.2924,62.892,-71.804,1011.5,-0.54,-999.0,yes,yes,no,300234065713070,BD2GHI,AOML,CCGS_HENRY_LARSEN,North
2019-11-19T07:59:57Z,1574150397,2019,8,0,323.3333,323.3333,62.904,-71.828,1012.7,-0.53,-999.0,yes,yes,no,300234065713070,BD2GHI,AOML,CCGS_HENRY_LARSEN,North
2019-11-19T09:00:00Z,1574154000,2019,9,0,323.375,323.375,62.914,-71.844,1013.1,-0.58,-999.0,yes,yes,no,300234065713070,BD2GHI,AOML,CCGS_HENRY_LARSEN,North
2019-11-19T10:02:03Z,1574157724,2019,10,2,323.4181,323.4181,62.924,-71.843,1014.2,-0.59,-999.0,yes,yes,no,300234065713070,BD2GHI,AOML,CCGS_HENRY_LARSEN,North
2019-11-19T10:59:57Z,1574161197,2019,11,0,323.4583,323.4583,62.921,-71.837,1015.0,-0.56,-999.0,yes,yes,no,300234065713070,BD2GHI,AOML,CCGS_HENRY_LARSEN,North
2019-11-19T12:00:00Z,1574164800,2019,12,0,323.5,323.5,62.919,-71.819,1015.6,-0.57,-999.0,yes,yes,no,300234065713070,BD2GHI,AOML,CCGS_HENRY_LARSEN,North
2019-11-19T13:02:03Z,1574168524,2019,13,2,323.5431,323.5431,62.912,-71.788,1016.2,-0.62,-999.0,yes,yes,no,300234065713070,BD2GHI,AOML,CCGS_HENRY_LARSEN,North
2019-11-19T13:59:57Z,1574171997,2019,14,0,323.5833,323.5833,62.908,-71.758,1016.7,-0.71,-999.0,yes,yes,no,300234065713070,BD2GHI,AOML,CCGS_HENRY_LARSEN,North
2019-11-19T15:00:00Z,1574175600,2019,15,0,323.625,323.625,62.906,-71.732,1016.9,-0.71,-999.0,yes,yes,no,300234065713070,BD2GHI,AOML,CCGS_HENRY_LARSEN,North
2019-11-19T16:00:02Z,1574179203,2019,16,0,323.6667,323.6667,62.907,-71.72,1017.3,-0.73,-999.0,yes,yes,no,300234065713070,BD2GHI,AOML,CCGS_HENRY_LARSEN,North
2019-11-19T16:59:57Z,1574182797,2019,17,0,323.7083,323.7083,62.913,-71.72,1017.7,-0.69,-999.0,yes,yes,no,300234065713070,BD2GHI,AOML,CCGS_HENRY_LARSEN,North
2019-11-19T18:00:00Z,1574186400,2019,18,0,323.75,323.75,62.924,-71.731,1018.2,-0.69,-999.0,yes,yes,no,300234065713070,BD2GHI,AOML,CCGS_HENRY_LARSEN,North
2019-11-19T19:00:02Z,1574190003,2019,19,0,323.7917,323.7917,62.936,-71.748,1019.0,-0.74,-999.0,yes,yes,no,300234065713070,BD2GHI,AOML,CCGS_HENRY_LARSEN,North
2019-11-19T19:59:57Z,1574193597,2019,20,0,323.8333,323.8333,62.946,-71.77,1019.5,-0.73,-999.0,yes,yes,no,300234065713070,BD2GHI,AOML,CCGS_HENRY_LARSEN,North
2019-11-19T21:00:00Z,1574197200,2019,21,0,323.875,323.875,62.955,-71.789,1020.3,-0.79,-999.0,yes,yes,no,300234065713070,BD2GHI,AOML,CCGS_HENRY_LARSEN,North
2019-11-19T22:00:02Z,1574200803,2019,22,0,323.9167,323.9167,62.961,-71.8,1020.8,-0.69,-999.0,yes,yes,no,300234065713070,BD2GHI,AOML,CCGS_HENRY_LARSEN,North
2019-11-19T22:59:57Z,1574204397,2019,23,0,323.9583,323.9583,62.964,-71.796,1021.5,-0.68,-999.0,yes,yes,no,300234065713070,BD2GHI,AOML,CCGS_HENRY_LARSEN,North
2019-11-20T00:00:00Z,1574208000,2019,0,0,324.0,324.0,62.961,-71.779,1022.0,-0.65,-999.0,yes,yes,no,300234065713070,BD2GHI,AOML,CCGS_HENRY_LARSEN,North
2019-11-20T01:00:02Z,1574211603,2019,1,0,324.0417,324.0417,62.956,-71.754,1022.0,-0.64,-999.0,yes,yes,no,300234065713070,BD2GHI,AOML,CCGS_HENRY_LARSEN,North
2019-11-20T01:59:57Z,1574215197,2019,2,0,324.0833,324.0833,62.949,-71.727,1022.3,-0.64,-999.0,yes,yes,no,300234065713070,BD2GHI,AOML,CCGS_HENRY_LARSEN,North
2019-11-20T03:00:00Z,1574218800,2019,3,0,324.125,324.125,62.944,-71.7,1022.1,-0.64,-999.0,yes,yes,no,300234065713070,BD2GHI,AOML,CCGS_HENRY_LARSEN,North
2019-11-20T04:00:02Z,1574222403,2019,4,0,324.1667,324.1667,62.942,-71.684,1022.0,-0.66,-999.0,yes,yes,no,300234065713070,BD2GHI,AOML,CCGS_HENRY_LARSEN,North
2019-11-20T04:59:57Z,1574225997,2019,5,0,324.2083,324.2083,62.944,-71.68,1022.0,-0.66,-999.0,yes,yes,no,300234065713070,BD2GHI,AOML,CCGS_HENRY_LARSEN,North
2019-11-20T06:00:00Z,1574229600,2019,6,0,324.25,324.25,62.954,-71.679,1022.1,-0.68,-999.0,yes,yes,no,300234065713070,BD2GHI,AOML,CCGS_HENRY_LARSEN,North
2019-11-20T07:00:02Z,1574233203,2019,7,0,324.2917,324.2917,62.966,-71.689,1022.4,-0.68,-999.0,yes,yes,no,300234065713070,BD2GHI,AOML,CCGS_HENRY_LARSEN,North
2019-11-20T07:59:57Z,1574236797,2019,8,0,324.3333,324.3333,62.977,-71.703,1022.4,-0.63,-999.0,yes,yes,no,300234065713070,BD2GHI,AOML,CCGS_HENRY_LARSEN,North
2019-11-20T09:00:00Z,1574240400,2019,9,0,324.375,324.375,62.988,-71.717,1022.5,-0.59,-999.0,yes,yes,no,300234065713070,BD2GHI,AOML,CCGS_HENRY_LARSEN,North
2019-11-20T10:01:03Z,1574244063,2019,10,1,324.4174,324.4174,62.997,-71.733,1023.2,-0.55,-999.0,yes,yes,no,300234065713070,BD2GHI,AOML,CCGS_HENRY_LARSEN,North
2019-11-20T10:59:57Z,1574247597,2019,11,0,324.4583,324.4583,63.003,-71.739,1023.4,-0.57,-999.0,yes,yes,no,300234065713070,BD2GHI,AOML,CCGS_HENRY_LARSEN,North
2019-11-20T12:00:00Z,1574251200,2019,12,0,324.5,324.5,63.005,-71.73,1023.5,-0.59,-999.0,yes,yes,no,300234065713070,BD2GHI,AOML,CCGS_HENRY_LARSEN,North
2019-11-20T13:00:02Z,1574254803,2019,13,0,324.5417,324.5417,63.004,-71.718,1023.4,-0.57,-999.0,yes,yes,no,300234065713070,BD2GHI,AOML,CCGS_HENRY_LARSEN,North
2019-11-20T13:59:57Z,1574258397,2019,14,0,324.5833,324.5833,63.001,-71.701,1023.1,-0.53,-999.0,yes,yes,no,300234065713070,BD2GHI,AOML,CCGS_HENRY_LARSEN,North
2019-11-20T15:00:00Z,1574262000,2019,15,0,324.625,324.625,62.999,-71.682,1022.6,-0.53,-999.0,yes,yes,no,300234065713070,BD2GHI,AOML,CCGS_HENRY_LARSEN,North
2019-11-20T16:00:02Z,1574265603,2019,16,0,324.6667,324.6667,62.998,-71.663,1022.1,-0.47,-999.0,yes,yes,no,300234065713070,BD2GHI,AOML,CCGS_HENRY_LARSEN,North
2019-11-20T16:59:57Z,1574269197,2019,17,0,324.7083,324.7083,63.001,-71.658,1021.9,-0.48,-999.0,yes,yes,no,300234065713070,BD2GHI,AOML,CCGS_HENRY_LARSEN,North
2019-11-20T18:01:00Z,1574272860,2019,18,1,324.7507,324.7507,63.01,-71.665,1021.4,-0.45,-999.0,yes,yes,no,300234065713070,BD2GHI,AOML,CCGS_HENRY_LARSEN,North
2019-11-20T19:00:02Z,1574276403,2019,19,0,324.7917,324.7917,63.025,-71.682,1021.2,-0.41,-999.0,yes,yes,no,300234065713070,BD2GHI,AOML,CCGS_HENRY_LARSEN,North
2019-11-20T19:59:57Z,1574279997,2019,20,0,324.8333,324.8333,63.041,-71.704,1021.0,-0.37,-999.0,yes,yes,no,300234065713070,BD2GHI,AOML,CCGS_HENRY_LARSEN,North
2019-11-20T21:00:00Z,1574283600,2019,21,0,324.875,324.875,63.057,-71.727,1020.9,-0.34,-999.0,yes,yes,no,300234065713070,BD2GHI,AOML,CCGS_HENRY_LARSEN,North
2019-11-20T22:00:02Z,1574287203,2019,22,0,324.9167,324.9167,63.071,-71.746,1020.3,-0.34,-999.0,yes,yes,no,300234065713070,BD2GHI,AOML,CCGS_HENRY_LARSEN,North
2019-11-20T22:59:57Z,1574290797,2019,23,0,324.9583,324.9583,63.083,-71.756,1020.2,-0.36,-999.0,yes,yes,no,300234065713070,BD2GHI,AOML,CCGS_HENRY_LARSEN,North
2019-11-21T00:00:00Z,1574294400,2019,0,0,325.0,325.0,63.089,-71.755,1020.0,-0.36,-999.0,yes,yes,no,300234065713070,BD2GHI,AOML,CCGS_HENRY_LARSEN,North
2019-11-21T01:00:02Z,1574298003,2019,1,0,325.0417,325.0417,63.088,-71.746,1019.3,-0.36,-999.0,yes,yes,no,300234065713070,BD2GHI,AOML,CCGS_HENRY_LARSEN,North
2019-11-21T02:01:58Z,1574301718,2019,2,2,325.0847,325.0847,63.084,-71.733,1018.5,-0.36,-999.0,yes,yes,no,300234065713070,BD2GHI,AOML,CCGS_HENRY_LARSEN,North
2019-11-21T03:00:00Z,1574305200,2019,3,0,325.125,325.125,63.079,-71.712,1017.7,-0.37,-999.0,yes,yes,no,300234065713070,BD2GHI,AOML,CCGS_HENRY_LARSEN,North
2019-11-21T04:03:56Z,1574309036,2019,4,4,325.1694,325.1694,63.076,-71.689,1016.9,-0.37,-999.0,yes,yes,no,300234065713070,BD2GHI,AOML,CCGS_HENRY_LARSEN,North
2019-11-21T05:03:59Z,1574312639,2019,5,4,325.2111,325.2111,63.076,-71.676,1016.3,-0.37,-999.0,yes,yes,no,300234065713070,BD2GHI,AOML,CCGS_HENRY_LARSEN,North
2019-11-21T06:00:00Z,1574316000,2019,6,0,325.25,325.25,63.079,-71.672,1015.6,-0.38,-999.0,yes,yes,no,300234065713070,BD2GHI,AOML,CCGS_HENRY_LARSEN,North
2019-11-21T07:00:02Z,1574319603,2019,7,0,325.2917,325.2917,63.082,-71.681,1015.4,-0.39,-999.0,yes,yes,no,300234065713070,BD2GHI,AOML,CCGS_HENRY_LARSEN,North
2019-11-21T07:59:57Z,1574323197,2019,8,0,325.3333,325.3333,63.096,-71.7,1015.3,-0.39,-999.0,yes,yes,no,300234065713070,BD2GHI,AOML,CCGS_HENRY_LARSEN,North
2019-11-21T09:00:00Z,1574326800,2019,9,0,325.375,325.375,63.111,-71.723,1014.3,-0.38,-999.0,yes,yes,no,300234065713070,BD2GHI,AOML,CCGS_HENRY_LARSEN,North
2019-11-21T10:00:02Z,1574330403,2019,10,0,325.4167,325.4167,63.126,-71.744,1013.7,-0.38,-999.0,yes,yes,no,300234065713070,BD2GHI,AOML,CCGS_HENRY_LARSEN,North
2019-11-21T10:59:57Z,1574333997,2019,11,0,325.4583,325.4583,63.139,-71.76,1012.9,-0.37,-999.0,yes,yes,no,300234065713070,BD2GHI,AOML,CCGS_HENRY_LARSEN,North
2019-11-21T12:00:00Z,1574337600,2019,12,0,325.5,325.5,63.147,-71.768,1012.3,-0.38,-999.0,yes,yes,no,300234065713070,BD2GHI,AOML,CCGS_HENRY_LARSEN,North
2019-11-21T13:01:03Z,1574341263,2019,13,1,325.5424,325.5424,63.15,-71.767,1011.6,-0.35,-999.0,yes,yes,no,300234065713070,BD2GHI,AOML,CCGS_HENRY_LARSEN,North
2019-11-21T13:59:57Z,1574344797,2019,14,0,325.5833,325.5833,63.144,-71.761,1010.5,-0.37,-999.0,yes,yes,no,300234065713070,BD2GHI,AOML,CCGS_HENRY_LARSEN,North
2019-11-21T15:00:00Z,1574348400,2019,15,0,325.625,325.625,63.137,-71.751,1009.9,-0.35,-999.0,yes,yes,no,300234065713070,BD2GHI,AOML,CCGS_HENRY_LARSEN,North
2019-11-21T16:03:04Z,1574352184,2019,16,3,325.6688,325.6688,63.131,-71.74,1009.2,-0.37,-999.0,yes,yes,no,300234065713070,BD2GHI,AOML,CCGS_HENRY_LARSEN,North
2019-11-21T16:59:57Z,1574355597,2019,17,0,325.7083,325.7083,63.125,-71.734,1008.5,-0.36,-999.0,yes,yes,no,300234065713070,BD2GHI,AOML,CCGS_HENRY_LARSEN,North
2019-11-21T18:03:01Z,1574359381,2019,18,3,325.7521,325.7521,63.133,-71.733,1007.6,-0.37,-999.0,yes,yes,no,300234065713070,BD2GHI,AOML,CCGS_HENRY_LARSEN,North
2019-11-21T19:02:03Z,1574362924,2019,19,2,325.7931,325.7931,63.141,-71.745,1006.8,-0.38,-999.0,yes,yes,no,300234065713070,BD2GHI,AOML,CCGS_HENRY_LARSEN,North
2019-11-21T19:59:57Z,1574366397,2019,20,0,325.8333,325.8333,63.156,-71.761,1005.9,-0.4,-999.0,yes,yes,no,300234065713070,BD2GHI,AOML,CCGS_HENRY_LARSEN,North
2019-11-21T21:00:00Z,1574370000,2019,21,0,325.875,325.875,63.176,-71.783,1005.3,-0.43,-999.0,yes,yes,no,300234065713070,BD2GHI,AOML,CCGS_HENRY_LARSEN,North
2019-11-21T22:00:02Z,1574373603,2019,22,0,325.9167,325.9167,63.193,-71.797,1004.7,-0.44,-999.0,yes,yes,no,300234065713070,BD2GHI,AOML,CCGS_HENRY_LARSEN,North
2019-11-21T22:59:57Z,1574377197,2019,23,0,325.9583,325.9583,63.21,-71.808,1004.3,-0.44,-999.0,yes,yes,no,300234065713070,BD2GHI,AOML,CCGS_HENRY_LARSEN,North
2019-11-22T00:01:00Z,1574380860,2019,0,1,326.0007,326.0007,63.219,-71.814,1003.7,-0.42,-999.0,yes,yes,no,300234065713070,BD2GHI,AOML,CCGS_HENRY_LARSEN,North
2019-11-22T01:00:02Z,1574384403,2019,1,0,326.0417,326.0417,63.221,-71.816,1002.9,-0.42,-999.0,yes,yes,no,300234065713070,BD2GHI,AOML,CCGS_HENRY_LARSEN,North
2019-11-22T01:59:57Z,1574387997,2019,2,0,326.0833,326.0833,63.218,-71.807,1002.2,-0.42,-999.0,yes,yes,no,300234065713070,BD2GHI,AOML,CCGS_HENRY_LARSEN,North
2019-11-22T03:00:00Z,1574391600,2019,3,0,326.125,326.125,63.213,-71.789,1001.3,-0.41,-999.0,yes,yes,no,300234065713070,BD2GHI,AOML,CCGS_HENRY_LARSEN,North
2019-11-22T04:03:04Z,1574395384,2019,4,3,326.1688,326.1688,63.207,-71.77,1000.5,-0.42,-999.0,yes,yes,no,300234065713070,BD2GHI,AOML,CCGS_HENRY_LARSEN,North
2019-11-22T04:59:57Z,1574398797,2019,5,0,326.2083,326.2083,63.205,-71.759,999.6,-0.41,-999.0,yes,yes,no,300234065713070,BD2GHI,AOML,CCGS_HENRY_LARSEN,North
2019-11-22T06:00:00Z,1574402400,2019,6,0,326.25,326.25,63.207,-71.754,998.9,-0.42,-999.0,yes,yes,no,300234065713070,BD2GHI,AOML,CCGS_HENRY_LARSEN,North
2019-11-22T07:00:02Z,1574406003,2019,7,0,326.2917,326.2917,63.211,-71.757,998.0,-0.42,-999.0,yes,yes,no,300234065713070,BD2GHI,AOML,CCGS_HENRY_LARSEN,North
2019-11-22T08:03:59Z,1574409839,2019,8,4,326.3361,326.3361,63.224,-71.774,997.1,-0.4,-999.0,yes,yes,no,300234065713070,BD2GHI,AOML,CCGS_HENRY_LARSEN,North
2019-11-22T09:00:00Z,1574413200,2019,9,0,326.375,326.375,63.232,-71.794,996.3,-0.37,-999.0,yes,yes,no,300234065713070,BD2GHI,AOML,CCGS_HENRY_LARSEN,North
2019-11-22T10:00:02Z,1574416803,2019,10,0,326.4167,326.4167,63.242,-71.817,995.7,-0.37,-999.0,yes,yes,no,300234065713070,BD2GHI,AOML,CCGS_HENRY_LARSEN,North
2019-11-22T10:59:57Z,1574420397,2019,11,0,326.4583,326.4583,63.25,-71.815,995.0,-0.36,-999.0,yes,yes,no,300234065713070,BD2GHI,AOML,CCGS_HENRY_LARSEN,North
2019-11-22T12:00:00Z,1574424000,2019,12,0,326.5,326.5,63.252,-71.813,994.4,-0.37,-999.0,yes,yes,no,300234065713070,BD2GHI,AOML,CCGS_HENRY_LARSEN,North
2019-11-22T13:00:02Z,1574427603,2019,13,0,326.5417,326.5417,63.251,-71.808,994.1,-0.36,-999.0,yes,yes,no,300234065713070,BD2GHI,AOML,CCGS_HENRY_LARSEN,North
2019-11-22T13:59:57Z,1574431197,2019,14,0,326.5833,326.5833,63.246,-71.811,993.3,-0.37,-999.0,yes,yes,no,300234065713070,BD2GHI,AOML,CCGS_HENRY_LARSEN,North
2019-11-22T15:00:00Z,1574434800,2019,15,0,326.625,326.625,63.235,-71.837,993.1,-0.36,-999.0,yes,yes,no,300234065713070,BD2GHI,AOML,CCGS_HENRY_LARSEN,North
2019-11-22T16:03:56Z,1574438636,2019,16,4,326.6694,326.6694,63.22,-71.84,992.6,-0.36,-999.0,yes,yes,no,300234065713070,BD2GHI,AOML,CCGS_HENRY_LARSEN,North
2019-11-22T17:03:59Z,1574442239,2019,17,4,326.7111,326.7111,63.209,-71.823,991.7,-0.42,-999.0,yes,yes,no,300234065713070,BD2GHI,AOML,CCGS_HENRY_LARSEN,North
2019-11-22T18:00:00Z,1574445600,2019,18,0,326.75,326.75,63.202,-71.8,991.1,-0.46,-999.0,yes,yes,no,300234065713070,BD2GHI,AOML,CCGS_HENRY_LARSEN,North
2019-11-22T19:00:02Z,1574449203,2019,19,0,326.7917,326.7917,63.201,-71.784,990.6,-0.43,-999.0,yes,yes,no,300234065713070,BD2GHI,AOML,CCGS_HENRY_LARSEN,North
2019-11-22T19:59:57Z,1574452797,2019,20,0,326.8333,326.8333,63.206,-71.778,990.3,-0.44,-999.0,yes,yes,no,300234065713070,BD2GHI,AOML,CCGS_HENRY_LARSEN,North
2019-11-22T21:00:00Z,1574456400,2019,21,0,326.875,326.875,63.213,-71.787,989.8,-0.37,-999.0,yes,yes,no,300234065713070,BD2GHI,AOML,CCGS_HENRY_LARSEN,North
2019-11-22T22:00:02Z,1574460003,2019,22,0,326.9167,326.9167,63.222,-71.806,989.4,-0.39,-999.0,yes,yes,no,300234065713070,BD2GHI,AOML,CCGS_HENRY_LARSEN,North
2019-11-22T22:59:57Z,1574463597,2019,23,0,326.9583,326.9583,63.235,-71.829,989.3,-0.39,-999.0,yes,yes,no,300234065713070,BD2GHI,AOML,CCGS_HENRY_LARSEN,North
2019-11-23T00:00:00Z,1574467200,2019,0,0,327.0,327.0,63.251,-71.84,989.1,-0.42,-999.0,yes,yes,no,300234065713070,BD2GHI,AOML,CCGS_HENRY_LARSEN,North
2019-11-23T01:00:02Z,1574470803,2019,1,0,327.0417,327.0417,63.258,-71.82,988.7,-0.38,-999.0,yes,yes,no,300234065713070,BD2GHI,AOML,CCGS_HENRY_LARSEN,North
2019-11-23T01:59:57Z,1574474397,2019,2,0,327.0833,327.0833,63.264,-71.802,988.5,-0.41,-999.0,yes,yes,no,300234065713070,BD2GHI,AOML,CCGS_HENRY_LARSEN,North
2019-11-23T03:00:00Z,1574478000,2019,3,0,327.125,327.125,63.258,-71.805,988.6,-0.42,-999.0,yes,yes,no,300234065713070,BD2GHI,AOML,CCGS_HENRY_LARSEN,North
2019-11-23T04:00:02Z,1574481603,2019,4,0,327.1667,327.1667,63.255,-71.814,988.6,-0.39,-999.0,yes,yes,no,300234065713070,BD2GHI,AOML,CCGS_HENRY_LARSEN,North
2019-11-23T04:59:57Z,1574485197,2019,5,0,327.2083,327.2083,63.247,-71.825,988.5,-0.38,-999.0,yes,yes,no,300234065713070,BD2GHI,AOML,CCGS_HENRY_LARSEN,North
2019-11-23T06:00:00Z,1574488800,2019,6,0,327.25,327.25,63.236,-71.829,988.6,-0.57,-999.0,yes,yes,no,300234065713070,BD2GHI,AOML,CCGS_HENRY_LARSEN,North
2019-11-23T07:00:02Z,1574492403,2019,7,0,327.2917,327.2917,63.22,-71.827,988.5,-0.41,-999.0,yes,yes,no,300234065713070,BD2GHI,AOML,CCGS_HENRY_LARSEN,North
2019-11-23T07:59:57Z,1574495997,2019,8,0,327.3333,327.3333,63.212,-71.813,988.4,-0.42,-999.0,yes,yes,no,300234065713070,BD2GHI,AOML,CCGS_HENRY_LARSEN,North
2019-11-23T09:00:00Z,1574499600,2019,9,0,327.375,327.375,63.218,-71.804,988.4,-0.4,-999.0,yes,yes,no,300234065713070,BD2GHI,AOML,CCGS_HENRY_LARSEN,North
2019-11-23T10:00:02Z,1574503203,2019,10,0,327.4167,327.4167,63.232,-71.818,988.4,-0.43,-999.0,yes,yes,no,300234065713070,BD2GHI,AOML,CCGS_HENRY_LARSEN,North
2019-11-23T10:59:57Z,1574506797,2019,11,0,327.4583,327.4583,63.256,-71.817,988.9,-0.4,-999.0,yes,yes,no,300234065713070,BD2GHI,AOML,CCGS_HENRY_LARSEN,North
2019-11-23T12:00:00Z,1574510400,2019,12,0,327.5,327.5,63.269,-71.784,989.0,-0.42,-999.0,yes,yes,no,300234065713070,BD2GHI,AOML,CCGS_HENRY_LARSEN,North
2019-11-23T13:00:02Z,1574514003,2019,13,0,327.5417,327.5417,63.276,-71.777,989.4,-0.42,-999.0,yes,yes,no,300234065713070,BD2GHI,AOML,CCGS_HENRY_LARSEN,North
2019-11-23T13:59:57Z,1574517597,2019,14,0,327.5833,327.5833,63.283,-71.775,989.9,-0.42,-999.0,yes,yes,no,300234065713070,BD2GHI,AOML,CCGS_HENRY_LARSEN,North
2019-11-23T15:00:00Z,1574521200,2019,15,0,327.625,327.625,63.283,-71.771,990.5,-0.41,-999.0,yes,yes,no,300234065713070,BD2GHI,AOML,CCGS_HENRY_LARSEN,North
2019-11-23T16:00:02Z,1574524803,2019,16,0,327.6667,327.6667,63.283,-71.769,991.2,-0.41,-999.0,yes,yes,no,300234065713070,BD2GHI,AOML,CCGS_HENRY_LARSEN,North
2019-11-23T16:59:57Z,1574528397,2019,17,0,327.7083,327.7083,63.28,-71.783,992.0,-0.4,-999.0,yes,yes,no,300234065713070,BD2GHI,AOML,CCGS_HENRY_LARSEN,North
2019-11-23T18:00:00Z,1574532000,2019,18,0,327.75,327.75,63.271,-71.781,992.5,-0.38,-999.0,yes,yes,no,300234065713070,BD2GHI,AOML,CCGS_HENRY_LARSEN,North
2019-11-23T19:00:02Z,1574535603,2019,19,0,327.7917,327.7917,63.275,-71.783,993.1,-0.39,-999.0,yes,yes,no,300234065713070,BD2GHI,AOML,CCGS_HENRY_LARSEN,North
2019-11-23T19:59:57Z,1574539197,2019,20,0,327.8333,327.8333,63.278,-71.773,993.9,-0.39,-999.0,yes,yes,no,300234065713070,BD2GHI,AOML,CCGS_HENRY_LARSEN,North
2019-11-23T21:00:00Z,1574542800,2019,21,0,327.875,327.875,63.29,-71.788,994.3,-0.41,-999.0,yes,yes,no,300234065713070,BD2GHI,AOML,CCGS_HENRY_LARSEN,North
2019-11-23T22:00:02Z,1574546403,2019,22,0,327.9167,327.9167,63.306,-71.775,995.0,-0.4,-999.0,yes,yes,no,300234065713070,BD2GHI,AOML,CCGS_HENRY_LARSEN,North
2019-11-23T22:59:57Z,1574549997,2019,23,0,327.9583,327.9583,63.319,-71.794,996.0,-0.39,-999.0,yes,yes,no,300234065713070,BD2GHI,AOML,CCGS_HENRY_LARSEN,North
2019-11-24T00:00:00Z,1574553600,2019,0,0,328.0,328.0,63.328,-71.822,996.6,-0.39,-999.0,yes,yes,no,300234065713070,BD2GHI,AOML,CCGS_HENRY_LARSEN,North
2019-11-24T01:00:02Z,1574557203,2019,1,0,328.0417,328.0417,63.333,-71.838,997.3,-0.37,-999.0,yes,yes,no,300234065713070,BD2GHI,AOML,CCGS_HENRY_LARSEN,North
2019-11-24T01:59:57Z,1574560797,2019,2,0,328.0833,328.0833,63.337,-71.841,998.4,-0.38,-999.0,yes,yes,no,300234065713070,BD2GHI,AOML,CCGS_HENRY_LARSEN,North
2019-11-24T03:00:00Z,1574564400,2019,3,0,328.125,328.125,63.338,-71.834,998.9,-0.38,-999.0,yes,yes,no,300234065713070,BD2GHI,AOML,CCGS_HENRY_LARSEN,North
2019-11-24T04:00:02Z,1574568003,2019,4,0,328.1667,328.1667,63.338,-71.822,999.3,-0.38,-999.0,yes,yes,no,300234065713070,BD2GHI,AOML,CCGS_HENRY_LARSEN,North
2019-11-24T04:59:57Z,1574571597,2019,5,0,328.2083,328.2083,63.336,-71.809,999.7,-0.35,-999.0,yes,yes,no,300234065713070,BD2GHI,AOML,CCGS_HENRY_LARSEN,North
2019-11-24T06:00:00Z,1574575200,2019,6,0,328.25,328.25,63.336,-71.807,1000.1,-0.37,-999.0,yes,yes,no,300234065713070,BD2GHI,AOML,CCGS_HENRY_LARSEN,North
2019-11-24T07:00:02Z,1574578803,2019,7,0,328.2917,328.2917,63.333,-71.804,1000.6,-0.37,-999.0,yes,yes,no,300234065713070,BD2GHI,AOML,CCGS_HENRY_LARSEN,North
2019-11-24T07:59:57Z,1574582397,2019,8,0,328.3333,328.3333,63.336,-71.807,1000.5,-0.39,-999.0,yes,yes,no,300234065713070,BD2GHI,AOML,CCGS_HENRY_LARSEN,North
2019-11-24T09:00:00Z,1574586000,2019,9,0,328.375,328.375,63.34,-71.824,1000.8,-0.38,-999.0,yes,yes,no,300234065713070,BD2GHI,AOML,CCGS_HENRY_LARSEN,North
2019-11-24T10:00:02Z,1574589603,2019,10,0,328.4167,328.4167,63.35,-71.832,1000.6,-0.34,-999.0,yes,yes,no,300234065713070,BD2GHI,AOML,CCGS_HENRY_LARSEN,North
2019-11-24T10:59:57Z,1574593197,2019,11,0,328.4583,328.4583,63.353,-71.835,1000.6,-0.33,-999.0,yes,yes,no,300234065713070,BD2GHI,AOML,CCGS_HENRY_LARSEN,North
2019-11-24T12:00:00Z,1574596800,2019,12,0,328.5,328.5,63.354,-71.842,1000.8,-0.31,-999.0,yes,yes,no,300234065713070,BD2GHI,AOML,CCGS_HENRY_LARSEN,North
2019-11-24T13:00:02Z,1574600403,2019,13,0,328.5417,328.5417,63.356,-71.85,1000.5,-0.32,-999.0,yes,yes,no,300234065713070,BD2GHI,AOML,CCGS_HENRY_LARSEN,North
2019-11-24T13:59:57Z,1574603997,2019,14,0,328.5833,328.5833,63.359,-71.847,1000.5,-0.33,-999.0,yes,yes,no,300234065713070,BD2GHI,AOML,CCGS_HENRY_LARSEN,North